Temperature
8 6 6 7 7 8 8 8 8 8 9 9 8 8 9 10 10 9 10 11 11 11 11 11 11 11 11 11 11 11 11 10 10 10 10 10 9 9 9 9 9 9 9 9
6 6 7 8 8 8 8 8 7 8 9 9 8 8 8 8 9 10 10 10 11 11 11 11 11 11 11 11 11 10 10 10 10 10 9 9 9 9 9 9 9 9 9 9
6 7 8 8 8 8 8 7 7 8 8 8 7 7 8 8 9 10 10 11 11 11 10 10 10 10 10 10 10 10 10 10 9 9 9 9 8 8 8 8 8 9 9 9
6 7 8 8 8 8 7 8 8 8 7 5 7 6 7 8 8 8 9 10 10 10 10 10 10 10 10 10 10 10 9 9 9 9 9 8 8 8 8 8 8 8 8 8
6 7 8 8 8 8 7 8 8 7 6 5 5 5 6 7 7 8 7 9 10 10 10 10 10 10 10 10 9 9 9 9 9 8 8 8 8 8 8 8 8 8 8 8
6 7 8 8 8 8 7 7 6 5 4 4 5 5 6 6 7 8 7 8 9 9 10 10 10 10 9 9 9 9 9 9 8 8 8 8 7 7 7 7 7 7 7 7
6 7 7 7 7 7 6 5 5 5 4 4 5 5 6 7 7 7 7 8 9 9 9 9 9 9 9 9 9 8 8 8 8 8 7 7 7 7 7 7 7 7 7 7
5 6 6 7 6 6 5 6 5 5 5 4 5 5 6 7 7 8 8 8 8 8 9 9 9 9 9 8 8 8 8 8 7 7 7 7 7 7 7 7 6 6 6 6
4 5 7 7 7 6 5 5 5 4 4 4 5 5 6 7 7 6 7 7 8 8 8 8 8 8 8 8 8 8 7 7 7 7 7 7 7 6 6 6 6 6 6 6
4 5 5 6 7 6 6 5 4 4 4 4 5 5 5 6 6 6 5 6 7 7 8 8 8 8 8 8 7 7 7 7 6 6 6 6 6 6 6 6 6 6 6 6
4 4 4 5 5 5 5 5 4 3 3 4 4 5 6 6 6 5 5 6 7 7 7 7 7 7 7 7 7 7 6 6 6 6 6 6 6 6 6 5 5 5 5 5
3 3 2 3 4 5 5 4 3 3 3 2 2 4 6 6 5 5 5 6 7 7 7 7 7 7 7 7 6 6 6 6 6 6 5 5 5 5 5 5 5 5 5 5
3 2 2 3 3 3 3 3 3 3 2 2 2 4 6 5 5 6 6 6 7 7 7 7 7 6 6 6 6 6 5 5 5 5 5 5 5 5 5 4 4 4 4 5
4 2 3 3 3 2 2 2 3 2 2 2 2 4 5 5 5 5 5 6 6 6 6 6 6 6 6 6 5 5 5 5 5 5 5 4 4 4 4 4 4 4 4 4
3 2 2 2 3 2 2 3 2 2 2 2 3 3 5 5 4 4 5 5 5 5 5 5 5 5 5 5 5 5 5 5 4 4 4 4 4 4 4 4 4 4 4 4
1 1 1 2 2 2 2 3 3 3 3 3 3 3 4 4 5 4 5 5 5 5 5 5 4 4 4 4 4 4 4 4 4 4 3 3 3 3 3 3 3 3 3 3
-0 0 1 1 2 2 2 3 3 3 3 3 3 4 4 3 4 4 4 4 4 4 4 4 4 4 4 3 3 4 3 3 3 3 3 3 3 3 3 3 3 3 3 3
-0 -0 0 0 1 1 3 3 3 3 3 3 3 3 3 3 4 4 4 4 4 3 3 3 3 3 3 3 3 3 3 3 3 3 2 2 2 2 2 3 3 3 3 3
0 -0 -0 -0 0 1 2 3 3 2 2 3 3 3 3 3 3 3 3 3 3 3 3 3 3 2 2 2 3 3 3 3 2 2 2 2 2 2 2 2 3 3 2 2
-0 -0 -0 -0 0 1 2 3 3 3 1 2 2 2 2 2 1 1 3 3 2 2 2 2 2 2 2 2 2 2 2 2 2 2 2 2 2 2 2 2 2 2 2 2
-0 -0 -0 -0 -0 0 2 2 3 2 1 2 3 2 2 1 1 2 2 2 2 2 1 1 1 1 1 1 1 1 1 1 1 1 1 1 1 1 1 1 1 1 1 1
-1 -1 -1 -1 -0 0 1 2 1 1 2 3 2 2 2 2 2 2 2 1 1 1 1 1 1 1 1 1 1 1 1 1 1 1 1 1 1 1 1 1 1 1 1 1
-1 -1 -1 -1 0 1 1 2 2 3 2 2 2 2 2 1 1 1 1 1 0 0 0 0 0 0 0 0 0 0 0 0 0 0 0 1 1 1 1 1 1 1 0 -0
-2 -1 -1 -1 -1 0 1 2 2 2 2 2 2 2 1 1 0 0 0 -0 -0 -0 -0 -1 -1 -0 -0 -0 -0 -0 -0 -0 -0 -0 0 0 0 0 0 0 0 0 -0 -0
-1 -1 -2 -1 -1 -0 1 1 1 1 1 1 1 1 1 0 -0 -0 -1 -1 -1 -1 -1 -1 -1 -1 -1 -1 -1 -1 -1 -1 -1 -0 -0 -0 -0 -0 -0 -0 -1 -1 -0 -1
-2 -1 -2 -1 -0 -1 -0 1 1 1 1 0 0 0 -0 -0 -1 -1 -1 -1 -1 -2 -2 -2 -2 -2 -1 -1 -1 -1 -1 -1 -1 -1 -1 -1 -1 -1 -1 -1 -1 -1 -1 -1
Wind_Speed
4 3 7 11 11 6 4 5 8 8 5 5 11 17 18 12 9 10 9 8 8 8 7 5 4 4 4 4 4 4 4 4 3 3 3 3 4 4 4 5 7 7 8 8
2 8 11 7 7 7 6 7 8 7 4 5 10 15 14 11 9 10 11 10 9 7 5 5 4 3 4 4 5 5 6 5 5 5 5 5 5 5 5 5 6 7 8 8
10 6 6 7 6 7 8 9 8 7 6 5 7 10 8 6 5 6 7 8 8 9 8 6 5 4 4 5 6 6 6 6 6 6 4 3 3 3 4 5 5 7 8 8
8 6 5 7 8 8 8 7 7 5 3 5 1 7 8 6 6 5 6 6 7 7 7 6 5 5 6 7 6 6 6 6 6 6 5 5 6 6 7 6 6 6 7 8
6 5 6 8 8 8 6 3 3 3 3 5 4 5 9 5 6 8 7 7 7 8 7 7 7 7 7 6 5 5 5 5 5 5 6 7 7 7 6 5 7 7 7 7
6 4 5 6 3 5 3 3 2 2 2 5 7 7 8 5 7 6 5 5 5 5 5 5 5 4 4 4 3 4 4 5 5 5 6 7 8 8 7 7 7 7 6 6
4 5 3 3 3 2 4 4 2 3 2 7 4 6 9 8 6 6 6 6 5 4 3 3 3 3 4 4 4 4 4 5 5 5 6 7 8 8 9 8 8 7 6 6
5 6 7 6 6 6 6 7 6 6 5 5 3 8 8 6 4 3 3 4 3 3 4 4 4 4 4 5 4 4 5 6 5 5 6 5 6 6 6 8 7 8 7 7
7 6 1 4 3 7 6 5 5 4 1 4 6 6 7 3 4 3 1 1 1 3 5 5 5 4 5 4 5 5 5 5 5 5 5 5 6 6 7 7 7 7 7 7
7 5 3 1 2 1 5 5 4 4 4 5 6 5 5 4 3 1 0 1 3 4 4 5 4 4 5 5 5 5 5 5 6 5 5 5 6 6 6 6 7 7 7 7
3 4 2 1 7 8 5 4 4 4 4 4 4 6 5 7 5 3 3 3 3 4 5 4 5 5 4 4 4 4 4 4 5 5 5 5 5 6 6 6 7 7 7 7
3 3 4 7 4 4 6 7 7 5 6 5 4 7 5 4 4 3 3 4 4 5 4 4 5 4 3 3 3 4 4 5 5 4 4 5 5 5 5 6 6 6 6 6
4 4 1 3 2 1 3 4 5 4 3 5 5 7 3 2 3 4 4 4 5 4 4 4 4 4 4 4 4 4 4 4 4 4 4 5 5 5 6 6 6 6 6 6
3 4 7 9 6 4 4 5 6 5 5 6 9 10 9 8 7 6 6 6 5 5 4 4 4 4 4 4 4 5 5 4 4 4 4 5 5 5 6 5 5 5 5 5
3 5 6 7 6 5 7 9 9 10 10 10 10 12 14 11 7 6 6 5 5 5 5 4 4 4 5 5 5 5 5 5 5 5 5 6 6 5 5 5 5 5 5 6
2 3 3 6 7 7 9 12 13 13 12 13 13 14 12 9 5 5 5 5 5 6 5 4 4 4 5 5 5 5 6 5 4 5 5 6 5 5 5 5 5 5 5 5
3 4 3 5 4 3 9 11 12 8 8 9 13 13 7 5 5 6 5 4 4 4 4 4 4 5 5 5 5 5 6 5 5 5 5 6 5 5 5 5 5 5 5 5
6 5 3 3 1 8 8 4 8 8 8 8 6 6 5 6 5 3 3 2 3 4 4 4 4 5 5 5 5 5 5 4 4 5 6 6 5 5 5 5 6 6 5 5
8 7 4 3 4 7 7 3 5 6 6 6 7 6 4 2 2 3 2 0 1 3 4 4 4 4 5 5 5 5 5 5 5 6 6 6 5 5 6 6 6 6 5 5
6 7 5 4 4 7 6 4 2 3 4 3 3 4 3 1 2 5 3 2 3 4 3 4 4 4 5 6 5 4 5 5 6 7 7 6 5 5 5 6 6 5 4 4
3 4 8 7 6 7 6 4 2 3 5 3 2 3 3 3 5 5 3 2 3 3 4 4 4 5 5 5 4 4 5 6 7 6 6 6 5 5 5 5 4 4 3 3
6 4 5 5 6 7 3 2 4 5 3 2 2 2 2 3 3 3 2 3 3 4 5 5 5 6 6 5 4 5 7 7 6 6 6 5 5 5 4 3 3 3 2 2
6 7 4 6 6 3 2 3 4 3 2 2 2 2 1 1 2 3 3 3 4 5 5 5 5 7 7 6 4 5 7 6 6 5 6 5 5 4 3 3 3 2 1 1
4 3 3 4 7 6 6 5 4 2 3 3 2 2 1 2 3 3 3 4 5 5 5 5 6 6 7 7 6 6 6 5 4 5 6 5 4 4 3 2 2 1 1 1
6 4 4 6 7 5 4 3 3 2 1 2 1 1 2 2 3 3 4 5 5 5 5 5 5 6 8 7 7 6 5 4 4 5 4 4 3 2 2 2 2 2 2 2
5 6 6 8 7 5 5 3 2 1 2 2 1 2 2 2 3 4 4 4 5 5 5 6 6 7 8 8 7 6 5 4 3 4 4 3 2 2 1 2 3 4 3 5
Wind_Direction
171 154 208 209 204 207 201 227 255 260 259 256 257 266 274 272 252 242 238 230 225 228 232 224 219 219 202 202 203 213 217 232 223 227 233 236 240 240 237 236 236 239 238 234
150 232 228 206 207 221 232 250 262 279 276 265 274 276 273 265 247 233 225 223 218 220 230 231 227 219 203 208 214 220 226 233 231 226 225 222 229 237 238 240 240 239 237 233
206 230 210 197 207 215 231 229 240 259 310 309 305 296 278 274 253 239 216 214 207 202 209 219 221 223 210 219 226 230 233 236 239 235 233 243 250 254 251 245 242 240 237 235
233 243 218 208 218 201 243 229 227 244 287 285 323 293 283 273 281 254 231 217 210 206 208 216 220 224 219 228 230 232 236 240 242 235 229 232 240 249 248 244 243 251 241 238
234 215 203 214 218 192 217 207 218 233 216 279 247 240 277 278 263 257 239 224 214 208 205 213 221 223 225 224 228 235 237 244 247 240 234 235 245 247 250 249 247 250 246 238
242 244 215 210 202 186 161 56 35 47 101 263 224 206 273 243 232 248 240 227 211 208 211 220 233 229 233 229 235 243 244 254 249 246 244 237 244 248 251 255 251 252 248 242
256 244 215 161 129 139 131 110 21 329 282 247 214 211 251 249 243 233 227 220 217 213 212 235 242 237 242 242 248 254 253 263 260 257 258 249 243 241 243 249 247 250 251 246
212 251 213 188 181 179 183 162 177 214 232 272 247 231 252 273 281 251 215 198 207 231 245 248 250 239 239 244 249 255 262 269 273 268 268 259 249 244 246 248 249 248 248 248
197 241 254 198 177 152 161 198 180 154 217 264 260 273 300 327 12 25 56 86 259 265 263 259 262 252 245 247 252 247 256 269 275 274 273 272 263 259 257 256 253 252 252 252
177 223 245 208 115 162 167 155 129 163 201 248 270 259 244 255 268 311 345 278 278 283 287 278 271 263 249 244 252 249 246 254 261 265 268 278 277 270 265 261 259 256 253 250
161 188 239 195 198 192 165 168 171 175 191 198 254 262 230 217 221 225 248 256 272 280 289 284 284 275 260 268 269 265 264 263 268 272 277 284 284 281 275 265 259 257 259 254
169 156 226 241 251 218 194 188 168 184 226 210 222 267 276 230 232 236 268 285 297 287 290 286 286 293 289 279 280 280 277 271 267 267 279 283 284 286 282 277 272 262 260 258
158 156 210 315 313 217 214 207 193 169 168 195 211 259 303 327 311 299 300 295 298 299 306 311 312 307 299 293 292 292 289 282 284 285 285 289 287 289 286 279 275 269 264 268
175 181 202 214 222 198 221 226 198 176 205 226 229 251 281 292 295 301 299 291 291 293 298 307 308 307 306 304 305 302 299 295 300 298 292 287 286 284 284 282 279 273 267 270
153 211 226 248 248 228 234 234 217 214 214 224 244 246 262 270 275 278 281 285 294 305 311 315 317 319 324 322 313 307 302 305 306 301 297 293 294 291 289 288 285 283 278 278
159 211 229 262 250 237 248 244 232 230 230 236 253 263 262 273 282 285 285 282 288 298 306 321 329 327 321 314 311 312 307 304 306 300 299 303 303 305 301 294 287 287 286 284
189 182 208 256 266 265 251 232 220 218 215 214 238 251 267 284 282 275 274 273 276 289 305 314 313 309 304 302 304 303 297 305 311 305 308 311 313 312 306 303 299 288 282 281
187 185 204 239 211 234 244 227 211 218 239 225 231 257 261 255 267 283 263 248 292 306 308 306 305 307 309 310 310 311 313 313 313 310 308 309 311 307 305 304 299 291 283 279
195 187 203 203 231 267 284 257 194 202 251 239 229 250 275 295 3 330 319 313 279 301 300 296 296 301 309 313 314 320 321 319 316 308 303 303 302 303 305 302 295 290 285 282
187 189 201 205 215 240 256 267 221 144 264 257 206 237 272 351 309 284 302 325 322 322 320 311 312 318 318 314 318 320 314 315 306 299 297 298 300 300 296 293 293 292 285 280
175 200 214 223 233 257 269 274 115 171 241 245 210 244 255 226 235 252 283 309 311 311 312 317 322 317 309 309 320 313 307 299 295 297 300 301 302 299 293 293 296 298 298 298
189 194 207 204 219 247 271 134 173 223 243 235 245 257 249 253 265 270 285 301 309 312 314 319 319 312 308 308 308 304 298 294 299 300 301 302 303 301 305 301 301 301 296 296
205 200 196 206 229 259 237 229 241 219 234 252 245 267 222 271 283 293 297 300 304 305 309 311 305 305 307 306 298 291 293 298 305 308 304 301 303 300 299 295 295 300 297 286
257 213 203 249 266 269 274 272 280 259 237 245 230 213 198 240 266 289 302 306 306 305 307 311 312 310 307 308 304 290 293 298 306 307 305 303 301 303 318 323 312 303 286 279
233 206 218 252 266 286 276 263 268 283 301 302 286 238 226 238 273 280 289 291 291 300 305 307 306 302 301 306 305 303 303 306 310 309 306 308 306 301 321 330 315 294 281 260
223 206 211 240 241 228 251 269 281 263 279 274 271 294 302 270 273 286 287 290 296 303 308 308 306 305 304 306 304 306 308 307 310 316 317 314 313 317 320 339 343 339 324 319
Height
1472 1476 1475 1471 1472 1471 1472 1473 1472 1469 1465 1466 1463 1457 1449 1447 1447 1445 1444 1445 1445 1446 1448 1449 1450 1450 1451 1452 1453 1453 1454 1454 1454 1454 1453 1453 1452 1451 1451 1451 1451 1452 1452 1453
1474 1472 1465 1466 1468 1470 1471 1472 1471 1467 1464 1463 1460 1453 1445 1441 1439 1438 1438 1439 1440 1442 1443 1444 1445 1446 1447 1448 1449 1449 1449 1449 1449 1449 1448 1448 1447 1446 1445 1445 1446 1446 1446 1447
1468 1463 1461 1464 1466 1468 1468 1469 1468 1467 1464 1462 1461 1453 1443 1437 1434 1433 1433 1434 1435 1437 1439 1440 1442 1442 1443 1444 1444 1444 1444 1444 1444 1444 1444 1443 1442 1440 1440 1439 1439 1440 1440 1440
1465 1460 1459 1461 1462 1463 1466 1461 1463 1464 1469 1470 1466 1465 1445 1437 1433 1431 1430 1430 1431 1433 1435 1436 1437 1438 1439 1439 1440 1439 1439 1439 1438 1438 1438 1437 1435 1434 1433 1433 1433 1434 1434 1434
1460 1457 1457 1458 1457 1458 1460 1459 1461 1463 1467 1471 1467 1468 1447 1438 1434 1429 1428 1427 1428 1430 1431 1432 1433 1434 1434 1435 1435 1435 1434 1434 1433 1433 1432 1431 1430 1429 1428 1428 1427 1427 1428 1428
1457 1454 1453 1453 1453 1455 1457 1461 1464 1468 1472 1473 1463 1466 1448 1439 1430 1427 1425 1426 1426 1427 1428 1429 1430 1430 1430 1431 1431 1431 1430 1429 1428 1427 1427 1425 1424 1423 1422 1421 1421 1421 1421 1422
1456 1452 1450 1451 1454 1455 1457 1465 1473 1474 1479 1470 1456 1458 1443 1428 1425 1423 1423 1423 1424 1425 1425 1426 1426 1426 1427 1427 1427 1426 1426 1424 1423 1422 1421 1420 1418 1417 1416 1416 1415 1415 1415 1415
1458 1455 1449 1448 1450 1453 1456 1459 1468 1470 1470 1464 1453 1451 1435 1424 1421 1420 1420 1421 1422 1422 1423 1423 1423 1423 1424 1423 1423 1423 1422 1420 1419 1417 1416 1414 1413 1412 1411 1410 1410 1409 1409 1409
1457 1453 1445 1445 1445 1449 1455 1457 1456 1465 1468 1467 1454 1444 1432 1422 1421 1420 1420 1421 1421 1421 1421 1421 1421 1421 1421 1420 1420 1419 1418 1416 1415 1413 1411 1410 1409 1407 1405 1404 1404 1403 1403 1403
1449 1453 1447 1445 1445 1447 1449 1452 1460 1464 1465 1461 1452 1445 1437 1426 1424 1423 1422 1421 1420 1419 1418 1418 1418 1417 1417 1417 1416 1415 1414 1412 1411 1410 1407 1406 1404 1402 1400 1399 1397 1397 1397 1397
1447 1452 1450 1448 1446 1447 1450 1453 1455 1460 1461 1461 1455 1441 1425 1424 1421 1422 1421 1419 1418 1417 1415 1415 1415 1414 1414 1413 1412 1411 1410 1408 1407 1405 1403 1401 1399 1397 1395 1393 1391 1391 1390 1390
1445 1451 1454 1449 1444 1442 1444 1445 1451 1457 1459 1460 1458 1442 1420 1420 1419 1419 1419 1418 1416 1415 1414 1413 1412 1411 1410 1410 1409 1407 1406 1404 1403 1401 1399 1396 1394 1391 1389 1387 1386 1385 1384 1383
1443 1450 1453 1450 1450 1446 1445 1445 1446 1449 1453 1456 1454 1439 1420 1420 1419 1418 1418 1416 1415 1413 1412 1411 1409 1408 1407 1406 1405 1404 1402 1400 1399 1397 1394 1392 1389 1386 1384 1382 1380 1379 1379 1378
1439 1444 1446 1444 1441 1443 1444 1443 1443 1447 1450 1450 1444 1432 1423 1421 1420 1418 1417 1415 1414 1412 1411 1409 1407 1406 1404 1403 1402 1400 1399 1397 1395 1393 1390 1387 1385 1382 1379 1377 1375 1374 1373 1373
1438 1441 1441 1438 1436 1437 1437 1437 1438 1440 1439 1440 1432 1429 1421 1418 1418 1417 1416 1414 1412 1410 1409 1407 1405 1404 1402 1401 1399 1397 1395 1393 1391 1389 1386 1383 1380 1378 1375 1373 1371 1370 1369 1368
1438 1440 1440 1437 1433 1433 1433 1429 1430 1431 1430 1429 1426 1423 1416 1415 1415 1415 1413 1412 1410 1409 1407 1405 1404 1402 1401 1399 1397 1394 1392 1390 1388 1385 1382 1379 1376 1373 1371 1369 1367 1366 1365 1364
1439 1440 1441 1437 1432 1432 1429 1420 1421 1422 1420 1420 1420 1416 1412 1413 1413 1412 1410 1410 1409 1407 1406 1404 1402 1400 1398 1397 1394 1392 1389 1387 1384 1381 1378 1375 1372 1369 1367 1365 1363 1361 1360 1359
1435 1438 1439 1438 1436 1433 1417 1411 1412 1414 1413 1414 1413 1412 1411 1411 1410 1409 1408 1408 1407 1405 1404 1402 1400 1398 1396 1394 1392 1389 1386 1383 1381 1378 1375 1372 1369 1366 1364 1361 1359 1357 1356 1355
1428 1433 1436 1436 1435 1427 1416 1411 1410 1413 1412 1410 1411 1410 1409 1409 1408 1407 1407 1407 1406 1404 1402 1401 1399 1396 1393 1391 1388 1386 1383 1380 1378 1375 1371 1368 1366 1362 1360 1357 1355 1353 1351 1350
1425 1428 1432 1432 1431 1425 1413 1408 1406 1410 1413 1408 1408 1407 1407 1407 1410 1407 1405 1404 1403 1402 1400 1398 1396 1393 1391 1388 1385 1382 1379 1377 1374 1371 1368 1365 1363 1359 1356 1354 1351 1350 1348 1347
1426 1427 1427 1427 1426 1419 1410 1406 1406 1415 1413 1406 1405 1405 1405 1405 1406 1404 1403 1402 1401 1399 1398 1396 1393 1390 1388 1385 1382 1379 1376 1374 1371 1368 1365 1362 1359 1357 1354 1351 1349 1347 1345 1344
1424 1426 1426 1425 1424 1419 1407 1406 1409 1408 1404 1404 1403 1403 1403 1402 1402 1401 1400 1399 1398 1396 1394 1392 1390 1387 1385 1382 1379 1376 1373 1370 1368 1365 1362 1359 1356 1354 1352 1349 1347 1345 1343 1342
1419 1418 1418 1418 1415 1408 1405 1405 1404 1403 1403 1402 1402 1402 1401 1401 1400 1399 1398 1396 1395 1393 1391 1389 1387 1384 1381 1379 1376 1372 1370 1367 1364 1361 1358 1356 1353 1351 1349 1347 1345 1343 1341 1340
1414 1411 1413 1412 1407 1404 1403 1402 1402 1401 1401 1400 1400 1400 1400 1399 1398 1397 1395 1393 1391 1390 1388 1385 1383 1380 1377 1375 1372 1369 1366 1364 1361 1357 1355 1352 1350 1348 1346 1345 1343 1341 1339 1338
1409 1409 1409 1408 1404 1402 1400 1400 1400 1400 1400 1399 1398 1398 1397 1396 1395 1394 1392 1390 1388 1386 1384 1382 1379 1376 1373 1370 1368 1366 1363 1361 1358 1355 1353 1350 1348 1346 1345 1343 1342 1340 1339 1338
1404 1405 1406 1404 1400 1400 1399 1398 1398 1398 1397 1396 1396 1395 1394 1394 1392 1390 1389 1387 1385 1383 1380 1378 1375 1372 1369 1367 1364 1362 1360 1358 1356 1353 1351 1349 1347 1345 1343 1342 1340 1339 1338 1337